www.pogodaiklimat.ru

ПОГОДА в Альве, OK

  • Прогноз погоды в Альве
  • Монитор погоды в Альве
  • Климат в Альве

АРХИВ ПОГОДЫ в Альве

Время (UTC), дата Ветер
(напр.,м/с)
 
Видим.   Явления Облачность Т
(С)
Тd
(С)
f
(%)
Тe
(С)
Тes
(С)
Комфортность

P
(гПа)

Po
(гПа)
Тmin
(С)
Tmax
(С)
R
(мм)
SD
(см)
13:35 24.03 СЗ  16 км    ясно  +11.0  +9.0  87  +8  +9      964.5         
13:55 24.03 СЗ  16 км    ясно  +11.0  +8.0  82  +8  +9      964.5         
14:15 24.03 СЗ  16 км    ясно  +12.0  +8.0  76  +9  +11      964.5         
14:35 24.03 СЗ  16 км    ясно  +12.0  +8.0  76  +9  +10      964.8         
14:55 24.03 С  16 км    ясно  +13.0  +8.0  72  +11  +13      964.8         
15:15 24.03 С  16 км    ясно  +13.0  +8.0  72  +10  +12      964.8         
15:35 24.03 С  4
{9} 
16 км    ясно  +14.0  +8.0  67  +13  +19      964.8         
15:55 24.03 С  4
{7} 
16 км    ясно  +14.0  +8.0  67  +13  +19      964.8         
16:15 24.03 С  16 км    ясно  +15.0  +7.0  59  +14  +20      964.8         
16:35 24.03 С  3
{6} 
16 км    ясно  +15.0  +8.0  63  +14  +23      964.8         
16:55 24.03 СЗ  16 км    ясно  +16.0  +8.0  59  +15  +21      964.5         
17:15 24.03 С  16 км    ясно  +17.0  +8.0  55  +16  +21      964.5         
17:35 24.03 С  4
{7} 
16 км    ясно  +17.0  +7.0  52  +16  +24      964.5         
17:55 24.03 С  16 км    ясно  +17.0  +7.0  52  +17  +26      964.5         
18:15 24.03 нст  16 км    2/2 1350 м  +18.0  +7.0  49  +18  +27      964.5         
18:35 24.03 СЗ  16 км    2/2 1350 м  +18.0  +7.0  49  +18  +25      964.1         
18:55 24.03 С  4
{7} 
16 км    ясно  +18.0  +7.0  49  +18  +26      963.8         
19:15 24.03 СЗ  16 км    ясно  +18.0  +7.0  49  +18  +26      963.8         
19:35 24.03   16 км    2/2 1500 м  +19.0  +7.0  46  +19  +33  опасность
простуды 
  963.8         
19:55 24.03 С  16 км    5/5 1500 м  +18.0  +7.0  49  +18  +21      963.8         
20:15 24.03   16 км    2/2 1500 м  +18.0  +6.0  45  +18  +29      963.8         
20:35 24.03 С  16 км    5/5 1650 м  +19.0  +7.0  46  +20  +24      963.5         
20:55 24.03 СВ  16 км    5/5 1650 м  +20.0  +7.0  43  +21  +24  комфорт    963.5         
21:15 24.03 нст  16 км    2/2 1650 м  +19.0  +7.0  46  +20  +25      963.5         
21:35 24.03 СВ  16 км    2/2 1650 м  +19.0  +6.0  43  +19  +22      963.5         
21:55 24.03 В  16 км    ясно  +19.0  +7.0  46  +20  +24      963.5         
22:15 24.03   16 км    ясно  +19.0  +6.0  43  +19  +23      963.8         
22:35 24.03 С  16 км    ясно  +18.0  +7.0  49  +18  +19      963.8         
22:55 24.03 СВ  16 км    8/8 1950 м  +18.0  +7.0  49  +17  +17      964.1         
23:15 24.03 СВ  16 км    8/8 1950 м  +18.0  +8.0  52  +18  +18      964.1         
23:35 24.03 СВ  16 км    8/8 1800 м  +16.0  +9.0  63  +15  +15      964.5         
23:55 24.03 СВ  16 км    2/2 1950 м  +15.0  +9.0  67  +14  +14      964.8         
00:15 25.03 СВ  16 км    ясно  +14.0  +8.0  67  +12  +12      964.8         
00:35 25.03 С  16 км    5/5 1380 м  +14.0  +8.0  67  +12  +12      965.1         
00:55 25.03 С  н/о    н/о  +14.0  +8.0  67  +12  +12      965.7         
01:15 25.03 С  16 км    н/о  +13.0  +8.0  72  +11  +11      966.1         
01:35 25.03 С  16 км    8/8 1260 м  +13.0  +8.0  72  +11  +11      966.4         
01:55 25.03 С  16 км    8/8 1170 м  +12.0  +8.0  76  +10  +10      966.7         
02:15 25.03 С  16 км    8/8 1170 м  +12.0  +8.0  76  +10  +10      967.0         
02:35 25.03 С  16 км    8/8 1200 м  +11.0  +8.0  82  +8  +8      967.3         
02:55 25.03 С  16 км    5/5 1110 м  +11.0  +8.0  82  +8  +8      967.3         
03:15 25.03 С  16 км    8/8 1200 м  +11.0  +8.0  82  +9  +9      967.3         
03:35 25.03 С  16 км    5/5 1320 м  +10.0  +8.0  87  +7  +7      967.7         
03:55 25.03 С  16 км    5/5 1320 м  +10.0  +8.0  87  +7  +7      967.7         
04:15 25.03 С  16 км    5/5 1440 м  +10.0  +7.0  82  +7  +7      968.0         
04:35 25.03 С  16 км    5/5 1080 м  +10.0  +8.0  87  +7  +7      968.0         
04:55 25.03 С  16 км    8/8 1080 м  +9.0  +8.0  93  +6  +6      968.3         
05:15 25.03 С  16 км    10/10 900 м  +9.0  +8.0  93  +6  +6      968.6         

 

Местоположение метеостанции Alva Regional Airport: широта 36.7731 долгота -98.6700 высота над уровнем моря 449 м.

В архиве по умолчанию представлена погода в Альве за последние 1-2 суток. Обновление информации о фактической погоде в базе происходит ежечасно! Архивные данные за месяц целиком и за предыдущие месяцы Вы можете получить, выбрав интересующий диапазон дат из раскрывающегося списка и нажав кнопку "Ввод!".

Внимание! Архив погоды МЕТАР в базе сайта хранится не более 60 дней. Нет смысла пытаться выбрать более раннюю дату.

Внимание! Время в таблицах - всемирное. Для получения местного времени необходимо прибавить поправку, которая в Альве равна -6 ч.

Ветер - указаны скорость ветра в м/с и направление, откуда дует ветер: С - северный, СВ - северо-восточный, В - восточный, ЮВ - юго-восточный, Ю - южный, ЮЗ - юго-западный, З - западный, СЗ - северо-западный.
Видимость - горизонтальная дальность видимости в метрах или километрах. При видимости от 1 до 10 км при отсутствии осадков обычно наблюдается дымка, при ухудшении видимости до 1 км и менее - туман. В сухую погоду видимость может ухудшаться дымом, пылью или мглою.
Атмосферные явления - указаны явления, наблюдавшиеся в указанный момент времени.
Облачность - указаны через наклонную черту верхняя и нижняя облачность в баллах и высота нижней границы облаков в метрах. Внимание: облачность, как и прочие метеорологические величины в США измеряются автоматическими метеостанциями. Указанные значения в баллах носят условный характер и показывают процент времени, в течение которого, в среднем, лазерный луч высотомера отражался от облаков обратно.
T - Температура воздуха - температура, измеренная на высоте 2 м над землей.
Td - Температура точки росы - температура, при понижении до которой содержащийся в воздухе водяной пар достигнет насыщения.
f - Относительная влажность воздуха - влажноcть воздуха, измеренная на высоте 2 м над землей.
Te - Эффективная температура - температура, которую ощущает одетый по сезону человек в тени. Характеристика душности погоды. При расчете учитывается влияние влажности воздуха и скорости ветра на теплоощущения человека.
Tes - Эффективная температура на солнце - температура, которую ощущает человек, с поправкой на солнечный нагрев. Характеристика знойности погоды. Зависит от высоты солнца над горизонтом, облачности и скорости ветра. Ночью, в пасмурную погоду, а также при ветре 12 м/с и более поправка равна нулю.
P - Атмосферное давление - приведенное к уровню моря атмосферное давление.
Po - Атмосферное давление - измеренное на уровне метеостанции атмосферное давление.
Tmin - Минимальная температура - минимум температуры воздуха на высоте 2 м над землей.
Tmax - Максимальная температура - максимум температуры воздуха на высоте 2 м над землей.
R - Количество осадков - Количество выпавших осадков за 3 или 6 часов, мм.
SD - Снежный покров - Высота снежного покрова, см.